Boerne Stage Field, TX

5:49 AM CST on December 07, 2019 (GMT -0600)
Boerne Stage Field

Weather History for K5C1 - October, 2019

Change the Weather History Date:

Thursday, October 10, 2019

  Actual Average (KSAT) Record (KSAT)
Temperature  
Mean Temperature 81 °F -  
Max Temperature 89 °F 82 °F 98 °F (1894)
Min Temperature 73 °F 60 °F 42 °F (1990)
Cooling Degree Days 16    
Growing Degree Days 31 (Base 50)    
Moisture  
Dew Point 68 °F    
Average Humidity 71    
Maximum Humidity 94    
Minimum Humidity 40    
Precipitation  
Precipitation 0.00 in - - ()
Sea Level Pressure  
Sea Level Pressure 29.87 in    
Wind  
Wind Speed 10 mph (South)    
Max Wind Speed 17 mph    
Max Gust Speed 25 mph    
Visibility 10 miles    
Events      
Averages and records for this station are not official NWS values.
T = Trace of Precipitation, MM = Missing Value Source: NWS Daily Summary

Daily Weather History Graph

Daily Weather History Graph

Search for Another Location

Airport or City:

Astronomy

Oct. 10, 2019 Rise Set
Actual Time 7:33 AM CDT 7:09 PM CDT
Civil Twilight 7:09 AM CDT 7:33 PM CDT
Nautical Twilight 6:41 AM CDT 8:01 PM CDT
Astronomical Twilight 6:13 AM CDT 8:29 PM CDT
Moon 5:54 PM CDT (10/10) 4:39 AM CDT (10/10)
Length of Visible Light 12h 24m
Length of Day
11h 36m
Waxing Gibbous, 91% of the Moon is Illuminated
Oct 10
Waxing Gibbous
Oct 13
Full
Oct 21
Last Quarter
Oct 27
New
Nov 4
First Quarter

Hourly Weather History & Observations

Time (CDT) Temp. Heat Index Dew Point Humidity Pressure Visibility Wind Dir Wind Speed Gust Speed Precip Events Conditions
12:15 AM 73.4 °F - 69.8 °F 88% 29.90 in 10.0 mi South 11.5 mph 21.9 mph N/A   Mostly Cloudy
12:35 AM 73.4 °F - 69.8 °F 88% 29.90 in 10.0 mi South 8.1 mph 18.4 mph N/A   Overcast
12:55 AM 73.4 °F - 69.8 °F 88% 29.90 in 10.0 mi South 12.7 mph 17.3 mph N/A   Overcast
1:15 AM 73.4 °F - 71.6 °F 94% 29.90 in 10.0 mi South 8.1 mph 18.4 mph N/A   Overcast
1:35 AM 73.4 °F - 71.6 °F 94% 29.90 in 10.0 mi South 11.5 mph 23.0 mph N/A   Overcast
1:55 AM 73.4 °F - 71.6 °F 94% 29.90 in 10.0 mi South 11.5 mph 19.6 mph N/A   Overcast
2:15 AM 73.4 °F - 71.6 °F 94% 29.90 in 10.0 mi South 9.2 mph 18.4 mph N/A   Overcast
2:35 AM 73.4 °F - 69.8 °F 88% 29.91 in 10.0 mi South 6.9 mph 24.2 mph N/A   Overcast
2:55 AM 73.4 °F - 69.8 °F 88% 29.90 in 10.0 mi South 15.0 mph 20.7 mph N/A   Overcast
3:15 AM 73.4 °F - 69.8 °F 88% 29.90 in 10.0 mi South 10.4 mph - N/A   Overcast
3:35 AM 73.4 °F - 71.6 °F 94% 29.90 in 10.0 mi South 8.1 mph 19.6 mph N/A   Overcast
3:55 AM 73.4 °F - 69.8 °F 88% 29.90 in 10.0 mi South 3.5 mph 17.3 mph N/A   Overcast
4:15 AM 73.4 °F - 69.8 °F 88% 29.89 in 10.0 mi South 11.5 mph 25.3 mph N/A   Overcast
4:35 AM 73.4 °F - 69.8 °F 88% 29.90 in 10.0 mi South 5.8 mph - N/A   Overcast
4:55 AM 73.4 °F - 69.8 °F 88% 29.90 in 10.0 mi South 5.8 mph 20.7 mph N/A   Overcast
5:15 AM 73.4 °F - 69.8 °F 88% 29.90 in 10.0 mi South 9.2 mph 20.7 mph N/A   Overcast
5:35 AM 73.4 °F - 71.6 °F 94% 29.90 in 10.0 mi South 10.4 mph 19.6 mph N/A   Overcast
5:55 AM 73.4 °F - 71.6 °F 94% 29.90 in 10.0 mi South 3.5 mph 17.3 mph N/A   Overcast
6:15 AM 73.4 °F - 71.6 °F 94% 29.90 in 10.0 mi South 10.4 mph 23.0 mph N/A   Mostly Cloudy
6:35 AM 73.4 °F - 71.6 °F 94% 29.90 in 10.0 mi South 4.6 mph - N/A   Overcast
6:55 AM 73.4 °F - 71.6 °F 94% 29.90 in 10.0 mi South 11.5 mph 20.7 mph N/A   Overcast
7:15 AM 73.4 °F - 71.6 °F 94% 29.91 in 10.0 mi South 16.1 mph 23.0 mph N/A   Overcast
7:35 AM 73.4 °F - 71.6 °F 94% 29.91 in 10.0 mi South 15.0 mph 21.9 mph N/A   Overcast
7:55 AM 73.4 °F - 71.6 °F 94% 29.91 in 10.0 mi South 12.7 mph 21.9 mph N/A   Overcast
8:15 AM 73.4 °F - 71.6 °F 94% 29.92 in 10.0 mi South 11.5 mph 23.0 mph N/A   Overcast
8:35 AM 73.4 °F - 71.6 °F 94% 29.93 in 10.0 mi SSW 13.8 mph 23.0 mph N/A   Overcast
8:55 AM 73.4 °F - 71.6 °F 94% 29.93 in 10.0 mi Calm Calm - N/A   Overcast
9:15 AM 73.4 °F - 71.6 °F 94% 29.93 in 10.0 mi South 6.9 mph 21.9 mph N/A   Overcast
9:35 AM 75.2 °F - 71.6 °F 89% 29.94 in 10.0 mi South 13.8 mph 24.2 mph N/A   Overcast
9:55 AM 73.4 °F - 71.6 °F 94% 29.94 in 10.0 mi South 12.7 mph 21.9 mph N/A   Mostly Cloudy
10:15 AM 77.0 °F - 69.8 °F 78% 29.94 in 10.0 mi Calm Calm - N/A   Mostly Cloudy
10:35 AM 77.0 °F - 69.8 °F 78% 29.94 in 10.0 mi SSW 10.4 mph 19.6 mph N/A   Mostly Cloudy
10:55 AM 80.6 °F 83.9 °F 69.8 °F 70% 29.94 in 10.0 mi South 17.3 mph 23.0 mph N/A   Overcast
11:15 AM 80.6 °F 83.9 °F 69.8 °F 70% 29.93 in 10.0 mi SSW 15.0 mph 25.3 mph N/A   Overcast
11:35 AM 80.6 °F 83.2 °F 68.0 °F 65% 29.93 in 10.0 mi SSW 15.0 mph 21.9 mph N/A   Overcast
11:55 AM 80.6 °F 83.2 °F 68.0 °F 65% 29.92 in 10.0 mi SSW 17.3 mph 23.0 mph N/A   Overcast
12:15 PM 82.4 °F 84.6 °F 66.2 °F 58% 29.92 in 10.0 mi SSW 17.3 mph 25.3 mph N/A   Mostly Cloudy
12:35 PM 84.2 °F 86.6 °F 66.2 °F 55% 29.91 in 10.0 mi South 17.3 mph 24.2 mph N/A   Scattered Clouds
12:55 PM 84.2 °F 86.6 °F 66.2 °F 55% 29.90 in 10.0 mi South 15.0 mph 23.0 mph N/A   Scattered Clouds
1:15 PM 86.0 °F 88.2 °F 66.2 °F 51% 29.89 in 10.0 mi South 13.8 mph 24.2 mph N/A   Scattered Clouds
1:35 PM 86.0 °F 88.2 °F 66.2 °F 51% 29.88 in 10.0 mi South 13.8 mph 18.4 mph N/A   Scattered Clouds
1:55 PM 86.0 °F 87.3 °F 64.4 °F 48% 29.86 in 10.0 mi SSW 13.8 mph 23.0 mph N/A   Scattered Clouds
2:15 PM 87.8 °F 89.4 °F 64.4 °F 46% 29.84 in 10.0 mi SSE 15.0 mph 25.3 mph N/A   Clear
2:35 PM 87.8 °F 89.4 °F 64.4 °F 46% 29.84 in 10.0 mi SSE 10.4 mph 21.9 mph N/A   Clear
2:55 PM 87.8 °F 89.4 °F 64.4 °F 46% 29.82 in 10.0 mi South 11.5 mph 20.7 mph N/A   Clear
3:15 PM 89.6 °F 91.1 °F 64.4 °F 43% 29.81 in 10.0 mi South 12.7 mph 20.7 mph N/A   Clear
3:35 PM 89.6 °F 91.1 °F 64.4 °F 43% 29.81 in 10.0 mi South 13.8 mph 19.6 mph N/A   Clear
3:55 PM 89.6 °F 91.1 °F 64.4 °F 43% 29.81 in 10.0 mi South 15.0 mph 21.9 mph N/A   Clear
4:15 PM 89.6 °F 91.1 °F 64.4 °F 43% 29.81 in 10.0 mi South 15.0 mph 19.6 mph N/A   Clear
4:35 PM 89.6 °F 90.1 °F 62.6 °F 40% 29.80 in 10.0 mi South 11.5 mph 19.6 mph N/A   Scattered Clouds
4:55 PM 89.6 °F 90.1 °F 62.6 °F 40% 29.80 in 10.0 mi South 12.7 mph 17.3 mph N/A   Scattered Clouds
5:15 PM 89.6 °F 90.1 °F 62.6 °F 40% 29.79 in 10.0 mi South 13.8 mph 18.4 mph N/A   Clear
5:35 PM 89.6 °F 90.1 °F 62.6 °F 40% 29.79 in 10.0 mi SSE 12.7 mph 20.7 mph N/A   Clear
5:55 PM 89.6 °F 90.1 °F 62.6 °F 40% 29.79 in 10.0 mi South 13.8 mph 18.4 mph N/A   Clear
6:15 PM 89.6 °F 90.1 °F 62.6 °F 40% 29.79 in 10.0 mi South 11.5 mph 18.4 mph N/A   Clear
6:35 PM 87.8 °F 88.5 °F 62.6 °F 43% 29.79 in 10.0 mi SSE 6.9 mph 17.3 mph N/A   Clear
6:55 PM 87.8 °F 88.5 °F 62.6 °F 43% 29.80 in 10.0 mi South 6.9 mph - N/A   Clear
7:15 PM 86.0 °F 86.6 °F 62.6 °F 45% 29.80 in 10.0 mi SSE 4.6 mph - N/A   Clear
7:35 PM 84.2 °F 85.0 °F 62.6 °F 48% 29.80 in 10.0 mi Calm Calm - N/A   Clear
7:55 PM 82.4 °F 83.4 °F 62.6 °F 51% 29.81 in 10.0 mi Calm Calm - N/A   Clear
8:15 PM 82.4 °F 83.4 °F 62.6 °F 51% 29.81 in 10.0 mi Calm Calm - N/A   Clear
8:35 PM 82.4 °F 83.9 °F 64.4 °F 54% 29.82 in 10.0 mi SSE 9.2 mph - N/A   Clear
8:55 PM 82.4 °F 86.3 °F 69.8 °F 66% 29.83 in 10.0 mi SSE 12.7 mph 18.4 mph N/A   Clear
9:15 PM 80.6 °F 83.9 °F 69.8 °F 70% 29.83 in 10.0 mi SSE 10.4 mph 18.4 mph N/A   Clear
9:35 PM 80.6 °F 83.9 °F 69.8 °F 70% 29.84 in 10.0 mi South 12.7 mph 18.4 mph N/A   Clear
9:55 PM 78.8 °F - 69.8 °F 74% 29.85 in 10.0 mi South 10.4 mph - N/A   Scattered Clouds
10:15 PM 78.8 °F - 71.6 °F 78% 29.86 in 10.0 mi SSE 13.8 mph 19.6 mph N/A   Overcast
10:35 PM 78.8 °F - 71.6 °F 78% 29.87 in 10.0 mi South 13.8 mph 20.7 mph N/A   Overcast
10:55 PM 77.0 °F - 69.8 °F 78% 29.88 in 10.0 mi South 10.4 mph 16.1 mph N/A   Overcast
11:15 PM 77.0 °F - 69.8 °F 78% 29.88 in 10.0 mi Calm Calm - N/A   Overcast
11:35 PM 77.0 °F - 71.6 °F 83% 29.88 in 10.0 mi South 3.5 mph - N/A   Overcast
11:55 PM 77.0 °F - 71.6 °F 83% 29.88 in 10.0 mi South 9.2 mph - N/A   Overcast